| time (UTC) | temp F | wind direction | speed knots | gust knots | rain 1hr in | rain 24hr in | rain mn in | humidity % | barometer mb |
| 20260506093039 | 74 | 270 | 7.0 | 8.7 | 0.00 | 0.00 | 0.00 | ||
| 20260506092637 | 73 | 269 | 5.2 | 9.6 | 0.00 | 0.00 | 0.00 | ||
| 20260506092236 | 73 | 212 | 6.1 | 9.6 | 0.00 | 0.00 | 0.00 | ||
| 20260506091835 | 74 | 223 | 6.1 | 8.7 | 0.00 | 0.00 | 0.00 | ||
| 20260506091433 | 74 | 271 | 7.8 | 11.3 | 0.00 | 0.00 | 0.00 | ||
| 20260506091031 | 74 | 256 | 7.0 | 11.3 | 0.00 | 0.00 | 0.00 | ||
| 20260506090629 | 74 | 250 | 5.2 | 9.6 | 0.00 | 0.00 | 0.00 | ||
| 20260506090228 | 73 | 243 | 7.8 | 12.2 | 0.00 | 0.00 | 0.00 | ||
| 20260506085827 | 73 | 211 | 6.1 | 12.2 | 0.00 | 0.00 | 0.00 | ||
| 20260506085423 | 73 | 211 | 6.1 | 9.6 | 0.00 | 0.00 | 0.00 | ||
| 20260506085016 | 73 | 233 | 7.0 | 11.3 | 0.00 | 0.00 | 0.00 | ||
| 20260506084614 | 73 | 277 | 7.0 | 9.6 | 0.00 | 0.00 | 0.00 | ||
| 20260506084212 | 72 | 255 | 7.8 | 13.9 | 0.00 | 0.00 | 0.00 | ||
| 20260506083810 | 72 | 284 | 6.1 | 8.7 | 0.00 | 0.00 | 0.00 | ||
| 20260506083408 | 72 | 256 | 5.2 | 10.4 | 0.00 | 0.00 | 0.00 | ||
| 20260506083007 | 72 | 252 | 7.0 | 12.2 | 0.00 | 0.00 | 0.00 | ||
| 20260506082605 | 73 | 246 | 6.1 | 12.2 | 0.00 | 0.00 | 0.00 | ||
| 20260506082203 | 73 | 206 | 3.5 | 5.2 | 0.00 | 0.00 | 0.00 | ||
| 20260506081802 | 72 | 236 | 5.2 | 7.0 | 0.00 | 0.00 | 0.00 | ||
| 20260506081400 | 71 | 242 | 7.8 | 11.3 | 0.00 | 0.00 | 0.00 | ||
| 20260506080952 | 71 | 258 | 6.1 | 7.8 | 0.00 | 0.00 | 0.00 | ||
| 20260506080550 | 72 | 233 | 5.2 | 10.4 | 0.00 | 0.00 | 0.00 | ||
| 20260506080148 | 71 | 200 | 7.0 | 12.2 | 0.00 | 0.00 | 0.00 | ||
| 20260506073337 | 70 | 235 | 7.0 | 9.6 | 0.00 | 0.00 | 0.00 | ||
| 20260506072928 | 70 | 239 | 7.8 | 13.0 | 0.00 | 0.00 | 0.00 | ||
| 20260506072526 | 71 | 213 | 4.3 | 6.1 | 0.00 | 0.00 | 0.00 | ||
| 20260506072125 | 71 | 209 | 4.3 | 8.7 | 0.00 | 0.00 | 0.00 | ||
| 20260506071724 | 70 | 211 | 6.1 | 10.4 | 0.00 | 0.00 | 0.00 | ||
| 20260506071321 | 70 | 208 | 9.6 | 13.9 | 0.00 | 0.00 | 0.00 | ||
| 20260506070920 | 74 | 225 | 6.1 | 10.4 | 0.00 | 0.00 | 0.00 | ||
| 20260506070518 | 76 | 231 | 7.8 | 13.0 | 0.00 | 0.00 | 0.00 | ||
| 20260506070117 | 73 | 229 | 6.1 | 8.7 | 0.00 | 0.00 | 0.00 | ||
| 20260506062456 | 69 | 200 | 5.2 | 7.8 | 0.00 | 0.00 | 0.00 | ||
| 20260506062054 | 70 | 209 | 5.2 | 8.7 | 0.00 | 0.00 | 0.00 | ||
| 20260506061653 | 70 | 168 | 6.1 | 8.7 | 0.00 | 0.00 | 0.00 | ||
| 20260506061251 | 70 | 153 | 3.5 | 7.0 | 0.00 | 0.00 | 0.00 | ||
| 20260506060843 | 69 | 146 | 7.0 | 9.6 | 0.00 | 0.00 | 0.00 | ||
| 20260506060440 | 69 | 142 | 7.0 | 12.2 | 0.00 | 0.00 | 0.00 | ||
| 20260506051213 | 66 | 152 | 7.8 | 14.8 | 0.00 | 0.00 | 0.00 | ||
| 20260506050812 | 66 | 157 | 7.0 | 9.6 | 0.00 | 0.00 | 0.00 | ||
| 20260506050410 | 65 | 163 | 8.7 | 13.9 | 0.00 | 0.00 | 0.00 | ||
| 20260506044355 | 64 | 144 | 7.8 | 13.9 | 0.00 | 0.00 | 0.00 | ||
| 20260506043954 | 65 | 132 | 5.2 | 7.0 | 0.00 | 0.00 | 0.00 | ||
| 20260506043552 | 64 | 137 | 6.1 | 7.8 | 0.00 | 0.00 | 0.00 | ||
| 20260506043150 | 65 | 184 | 4.3 | 7.8 | 0.00 | 0.00 | 0.00 | ||
| 20260506042749 | 64 | 157 | 3.5 | 6.1 | 0.00 | 0.00 | 0.00 | ||
| 20260506042347 | 64 | 181 | 7.0 | 13.9 | 0.00 | 0.00 | 0.00 | ||
| 20260506041945 | 64 | 176 | 8.7 | 13.0 | 0.00 | 0.00 | 0.00 | ||
| 20260506041544 | 63 | 165 | 7.8 | 12.2 | 0.00 | 0.00 | 0.00 | ||
| 20260506041142 | 63 | 167 | 7.8 | 12.2 | 0.00 | 0.00 | 0.00 | ||
| 20260506040734 | 63 | 152 | 7.0 | 10.4 | 0.00 | 0.00 | 0.00 | ||
| 20260506040331 | 63 | 161 | 6.1 | 9.6 | 0.00 | 0.00 | 0.00 | ||
| 20260506035930 | 63 | 153 | 7.0 | 9.6 | 0.00 | 0.00 | 0.00 | ||
| 20260506035529 | 63 | 147 | 7.0 | 9.6 | 0.00 | 0.00 | 0.00 | ||
| 20260506035127 | 63 | 152 | 7.0 | 8.7 | 0.00 | 0.00 | 0.00 | ||
| 20260506034725 | 62 | 144 | 6.1 | 10.4 | 0.00 | 0.00 | 0.00 | ||
| 20260506034323 | 62 | 146 | 4.3 | 7.8 | 0.00 | 0.00 | 0.00 | ||
| 20260506033922 | 62 | 156 | 6.1 | 8.7 | 0.00 | 0.00 | 0.00 | ||
| 20260506033522 | 63 | 137 | 4.3 | 8.7 | 0.00 | 0.00 | 0.00 | ||
| 20260506033120 | 63 | 144 | 3.5 | 4.3 | 0.00 | 0.00 | 0.00 | ||
| 20260506032711 | 63 | 133 | 3.5 | 6.1 | 0.00 | 0.00 | 0.00 | ||
| 20260506032309 | 63 | 151 | 6.1 | 9.6 | 0.00 | 0.00 | 0.00 | ||
| 20260506031908 | 63 | 157 | 4.3 | 7.0 | 0.00 | 0.00 | 0.00 | ||
| 20260506031507 | 63 | 151 | 4.3 | 7.8 | 0.00 | 0.00 | 0.00 | ||
| 20260506031104 | 63 | 157 | 4.3 | 7.8 | 0.00 | 0.00 | 0.00 | ||
| 20260506030703 | 63 | 155 | 4.3 | 7.0 | 0.00 | 0.00 | 0.00 | ||
| 20260506030301 | 63 | 170 | 7.0 | 9.6 | 0.00 | 0.00 | 0.00 | ||
| 20260506025900 | 63 | 185 | 7.0 | 9.6 | 0.00 | 0.00 | 0.00 | ||
| 20260506025458 | 63 | 163 | 4.3 | 7.0 | 0.00 | 0.00 | 0.00 | ||
| 20260506025056 | 64 | 162 | 3.5 | 6.1 | 0.00 | 0.00 | 0.00 | ||
| 20260506024648 | 64 | 164 | 7.8 | 10.4 | 0.00 | 0.00 | 0.00 | ||
| 20260506024246 | 64 | 161 | 5.2 | 8.7 | 0.00 | 0.00 | 0.00 | ||
| 20260506023844 | 63 | 178 | 4.3 | 7.0 | 0.00 | 0.00 | 0.00 | ||
| 20260506023443 | 64 | 165 | 4.3 | 7.0 | 0.00 | 0.00 | 0.00 | ||
| 20260506023041 | 64 | 186 | 5.2 | 8.7 | 0.00 | 0.00 | 0.00 | ||
| 20260506022640 | 65 | 200 | 4.3 | 7.0 | 0.00 | 0.00 | 0.00 | ||
| 20260506022239 | 64 | 224 | 6.1 | 9.6 | 0.00 | 0.00 | 0.00 | ||
| 20260506021836 | 64 | 227 | 3.5 | 6.1 | 0.00 | 0.00 | 0.00 | ||
| 20260506021435 | 64 | 192 | 5.2 | 7.8 | 0.00 | 0.00 | 0.00 | ||
| 20260506021034 | 64 | 170 | 9.6 | 13.0 | 0.00 | 0.00 | 0.00 | ||
| 20260506020626 | 64 | 174 | 10.4 | 14.8 | 0.00 | 0.00 | 0.00 | ||
| 20260506020223 | 64 | 184 | 7.0 | 12.2 | 0.00 | 0.00 | 0.00 | ||
| 20260506015822 | 64 | 173 | 7.0 | 11.3 | 0.00 | 0.00 | 0.00 | ||
| 20260506015421 | 65 | 165 | 8.7 | 13.9 | 0.00 | 0.00 | 0.00 | ||
| 20260506015019 | 65 | 170 | 10.4 | 16.5 | 0.00 | 0.00 | 0.00 | ||
| 20260506014617 | 65 | 162 | 8.7 | 16.5 | 0.00 | 0.00 | 0.00 | ||
| 20260506014215 | 64 | 170 | 11.3 | 15.6 | 0.00 | 0.00 | 0.00 | ||
| 20260506013814 | 65 | 170 | 7.8 | 12.2 | 0.00 | 0.00 | 0.00 | ||
| 20260506013010 | 65 | 194 | 7.8 | 9.6 | 0.00 | 0.00 | 0.00 | ||
| 20260506012200 | 65 | 191 | 10.4 | 14.8 | 0.00 | 0.00 | 0.00 | ||
| 20260506011759 | 64 | 184 | 9.6 | 15.6 | 0.00 | 0.00 | 0.00 | ||
| 20260506011358 | 64 | 164 | 8.7 | 13.0 | 0.00 | 0.00 | 0.00 | ||
| 20260506010955 | 64 | 166 | 10.4 | 14.8 | 0.00 | 0.00 | 0.00 | ||
| 20260506010554 | 64 | 150 | 9.6 | 13.9 | 0.00 | 0.00 | 0.00 | ||
| 20260506010152 | 65 | 151 | 10.4 | 18.2 | 0.00 | 0.00 | 0.00 | ||
| 20260506005751 | 65 | 152 | 8.7 | 13.9 | 0.00 | 0.00 | 0.00 | ||
| 20260506005349 | 65 | 155 | 9.6 | 13.9 | 0.00 | 0.00 | 0.00 | ||
| 20260506004947 | 65 | 169 | 10.4 | 15.6 | 0.00 | 0.00 | 0.00 | ||
| 20260506004539 | 65 | 158 | 9.6 | 14.8 | 0.00 | 0.00 | 0.00 | ||
| 20260506004138 | 65 | 152 | 12.2 | 20.0 | 0.00 | 0.00 | 0.00 | ||
| 20260506003735 | 65 | 151 | 9.6 | 14.8 | 0.00 | 0.00 | 0.00 | ||
| 20260506003334 | 65 | 151 | 10.4 | 17.4 | 0.00 | 0.00 | 0.00 | ||
| 20260506002933 | 65 | 143 | 12.2 | 14.8 | 0.00 | 0.00 | 0.00 | ||
| 20260506002532 | 65 | 149 | 8.7 | 12.2 | 0.00 | 0.00 | 0.00 | ||
| 20260506002129 | 65 | 152 | 7.8 | 13.0 | 0.00 | 0.00 | 0.00 | ||
| 20260506001728 | 65 | 153 | 9.6 | 15.6 | 0.00 | 0.00 | 0.00 | ||
| 20260506001327 | 65 | 163 | 7.0 | 10.4 | 0.00 | 0.00 | 0.00 | ||
| 20260506000925 | 65 | 169 | 11.3 | 19.1 | 0.00 | 0.00 | 0.00 | ||
| 20260506000517 | 65 | 181 | 11.3 | 15.6 | 0.00 | 0.00 | 0.00 | ||
| 20260506000114 | 66 | 176 | 9.6 | 13.9 | 0.00 | 0.00 | 0.00 | ||
| 20260505235713 | 66 | 168 | 11.3 | 17.4 | 0.00 | 0.00 | 0.00 | ||
| 20260505235312 | 66 | 178 | 10.4 | 16.5 | 0.00 | 0.00 | 0.00 | ||
| 20260505234910 | 66 | 168 | 12.2 | 19.1 | 0.00 | 0.00 | 0.00 | ||
| 20260505234508 | 66 | 165 | 11.3 | 17.4 | 0.00 | 0.00 | 0.00 | ||
| 20260505234106 | 66 | 187 | 13.0 | 19.1 | 0.00 | 0.00 | 0.00 | ||
| 20260505233705 | 66 | 176 | 13.0 | 19.1 | 0.00 | 0.00 | 0.00 | ||
| 20260505233304 | 66 | 183 | 13.0 | 19.1 | 0.00 | 0.00 | 0.00 | ||
| 20260505232901 | 66 | 175 | 11.3 | 15.6 | 0.00 | 0.00 | 0.00 | ||
| 20260505232453 | 66 | 171 | 10.4 | 15.6 | 0.00 | 0.00 | 0.00 | ||
| 20260505232051 | 67 | 181 | 9.6 | 12.2 | 0.00 | 0.00 | 0.00 | ||
| 20260505231650 | 67 | 175 | 13.0 | 17.4 | 0.00 | 0.00 | 0.00 | ||
| 20260505231248 | 67 | 180 | 13.0 | 17.4 | 0.00 | 0.00 | 0.00 | ||
| 20260505230846 | 67 | 156 | 8.7 | 13.0 | 0.00 | 0.00 | 0.00 | ||
| 20260505230445 | 67 | 153 | 10.4 | 14.8 | 0.00 | 0.00 | 0.00 | ||
| 20260505230043 | 67 | 167 | 9.6 | 13.9 | 0.00 | 0.00 | 0.00 | ||
| 20260505225642 | 67 | 178 | 9.6 | 13.9 | 0.00 | 0.00 | 0.00 | ||
| 20260505225240 | 67 | 166 | 7.8 | 10.4 | 0.00 | 0.00 | 0.00 | ||
| 20260505224839 | 67 | 156 | 7.0 | 10.4 | 0.00 | 0.00 | 0.00 | ||
| 20260505224431 | 67 | 177 | 5.2 | 9.6 | 0.00 | 0.00 | 0.00 | ||
| 20260505224029 | 67 | 157 | 3.5 | 7.8 | 0.00 | 0.00 | 0.00 | ||
| 20260505223626 | 67 | 177 | 7.0 | 8.7 | 0.00 | 0.00 | 0.00 | ||
| 20260505223225 | 68 | 181 | 7.8 | 11.3 | 0.00 | 0.00 | 0.00 | ||
| 20260505222824 | 68 | 164 | 11.3 | 15.6 | 0.00 | 0.00 | 0.00 | ||
| 20260505222423 | 68 | 151 | 10.4 | 18.2 | 0.00 | 0.00 | 0.00 | ||
| 20260505222020 | 68 | 167 | 7.8 | 10.4 | 0.00 | 0.00 | 0.00 | ||
| 20260505221618 | 68 | 176 | 7.8 | 11.3 | 0.00 | 0.00 | 0.00 | ||
| 20260505221217 | 68 | 152 | 9.6 | 13.0 | 0.00 | 0.00 | 0.00 | ||
| 20260505220815 | 68 | 173 | 10.4 | 15.6 | 0.00 | 0.00 | 0.00 | ||
| 20260505220405 | 68 | 165 | 7.8 | 9.6 | 0.00 | 0.00 | 0.00 | ||
| 20260505220004 | 68 | 153 | 7.0 | 13.9 | 0.00 | 0.00 | 0.00 | ||
| 20260505215602 | 68 | 171 | 11.3 | 16.5 | 0.00 | 0.00 | 0.00 | ||
| 20260505215202 | 68 | 154 | 8.7 | 11.3 | 0.00 | 0.00 | 0.00 | ||
| 20260505214800 | 68 | 166 | 7.8 | 11.3 | 0.00 | 0.00 | 0.00 | ||
| 20260505214358 | 68 | 164 | 13.9 | 18.2 | 0.00 | 0.00 | 0.00 | ||
| 20260505213956 | 68 | 152 | 9.6 | 14.8 | 0.00 | 0.00 | 0.00 | ||
| 20260505213555 | 68 | 151 | 8.7 | 13.9 | 0.00 | 0.00 | 0.00 | ||
| 20260505213154 | 68 | 151 | 9.6 | 13.0 | 0.00 | 0.00 | 0.00 | ||
| 20260505212751 | 68 | 143 | 7.8 | 13.9 | 0.00 | 0.00 | 0.00 | ||
| 20260505212343 | 68 | 150 | 7.0 | 11.3 | 0.00 | 0.00 | 0.00 | ||
| 20260505211941 | 68 | 158 | 8.7 | 11.3 | 0.00 | 0.00 | 0.00 | ||
| 20260505211540 | 68 | 148 | 7.8 | 9.6 | 0.00 | 0.00 | 0.00 | ||
| 20260505211138 | 68 | 150 | 8.7 | 12.2 | 0.00 | 0.00 | 0.00 | ||
| 20260505210736 | 68 | 154 | 7.0 | 11.3 | 0.00 | 0.00 | 0.00 | ||
| 20260505210335 | 69 | 151 | 6.1 | 10.4 | 0.00 | 0.00 | 0.00 | ||
| 20260505205933 | 69 | 148 | 8.7 | 12.2 | 0.00 | 0.00 | 0.00 | ||
| 20260505205531 | 69 | 173 | 9.6 | 13.9 | 0.00 | 0.00 | 0.00 | ||
| 20260505205130 | 69 | 178 | 9.6 | 12.2 | 0.00 | 0.00 | 0.00 | ||
| 20260505204728 | 70 | 182 | 12.2 | 17.4 | 0.00 | 0.00 | 0.00 | ||
| 20260505204320 | 69 | 175 | 9.6 | 15.6 | 0.00 | 0.00 | 0.00 | ||
| 20260505203918 | 70 | 186 | 9.6 | 13.9 | 0.00 | 0.00 | 0.00 | ||
| 20260505203516 | 70 | 161 | 12.2 | 15.6 | 0.00 | 0.00 | 0.00 | ||
| 20260505203115 | 70 | 192 | 10.4 | 17.4 | 0.00 | 0.00 | 0.00 | ||
| 20260505202713 | 70 | 193 | 10.4 | 17.4 | 0.00 | 0.00 | 0.00 | ||
| 20260505202312 | 70 | 172 | 9.6 | 13.0 | 0.00 | 0.00 | 0.00 | ||
| 20260505201910 | 70 | 193 | 7.0 | 10.4 | 0.00 | 0.00 | 0.00 | ||
| 20260505201509 | 70 | 181 | 9.6 | 13.0 | 0.00 | 0.00 | 0.00 | ||
| 20260505201108 | 71 | 196 | 11.3 | 21.7 | 0.00 | 0.00 | 0.00 | ||
| 20260505200706 | 70 | 172 | 13.9 | 20.0 | 0.00 | 0.00 | 0.00 | ||
| 20260505200257 | 71 | 196 | 10.4 | 16.5 | 0.00 | 0.00 | 0.00 | ||
| 20260505195855 | 71 | 176 | 8.7 | 16.5 | 0.00 | 0.00 | 0.00 | ||
| 20260505195454 | 71 | 194 | 7.8 | 10.4 | 0.00 | 0.00 | 0.00 | ||
| 20260505195053 | 71 | 173 | 8.7 | 13.9 | 0.00 | 0.00 | 0.00 | ||
| 20260505194650 | 71 | 192 | 7.8 | 10.4 | 0.00 | 0.00 | 0.00 | ||
| 20260505194249 | 71 | 180 | 9.6 | 14.8 | 0.00 | 0.00 | 0.00 | ||
| 20260505193847 | 71 | 163 | 9.6 | 12.2 | 0.00 | 0.00 | 0.00 | ||
| 20260505193446 | 71 | 170 | 7.8 | 14.8 | 0.00 | 0.00 | 0.00 | ||
| 20260505193045 | 71 | 173 | 7.8 | 10.4 | 0.00 | 0.00 | 0.00 | ||
| 20260505192642 | 71 | 164 | 5.2 | 8.7 | 0.00 | 0.00 | 0.00 | ||
| 20260505192234 | 72 | 180 | 5.2 | 7.8 | 0.00 | 0.00 | 0.00 | ||
| 20260505191832 | 72 | 177 | 7.8 | 15.6 | 0.00 | 0.00 | 0.00 | ||
| 20260505191431 | 72 | 162 | 4.3 | 7.0 | 0.00 | 0.00 | 0.00 | ||
| 20260505191029 | 72 | 186 | 7.8 | 10.4 | 0.00 | 0.00 | 0.00 | ||
| 20260505190627 | 73 | 187 | 7.8 | 10.4 | 0.00 | 0.00 | 0.00 | ||
| 20260505190226 | 73 | 173 | 7.0 | 10.4 | 0.00 | 0.00 | 0.00 | ||
| 20260505185825 | 73 | 182 | 7.8 | 9.6 | 0.00 | 0.00 | 0.00 | ||
| 20260505185422 | 73 | 184 | 8.7 | 13.9 | 0.00 | 0.00 | 0.00 | ||
| 20260505185021 | 73 | 202 | 11.3 | 15.6 | 0.00 | 0.00 | 0.00 | ||
| 20260505184620 | 73 | 182 | 8.7 | 13.9 | 0.00 | 0.00 | 0.00 | ||
| 20260505184212 | 73 | 178 | 8.7 | 10.4 | 0.00 | 0.00 | 0.00 | ||
| 20260505183809 | 73 | 183 | 6.1 | 8.7 | 0.00 | 0.00 | 0.00 | ||
| 20260505183408 | 73 | 195 | 8.7 | 12.2 | 0.00 | 0.00 | 0.00 | ||
| 20260505183007 | 73 | 187 | 6.1 | 7.8 | 0.00 | 0.00 | 0.00 | ||
| 20260505182605 | 73 | 189 | 7.8 | 11.3 | 0.00 | 0.00 | 0.00 | ||
| 20260505182204 | 73 | 177 | 7.0 | 10.4 | 0.00 | 0.00 | 0.00 | ||
| 20260505181801 | 73 | 183 | 7.0 | 9.6 | 0.00 | 0.00 | 0.00 | ||
| 20260505181400 | 74 | 177 | 7.8 | 12.2 | 0.00 | 0.00 | 0.00 | ||
| 20260505180959 | 74 | 187 | 7.0 | 9.6 | 0.00 | 0.00 | 0.00 | ||
| 20260505180557 | 74 | 182 | 9.6 | 13.9 | 0.00 | 0.00 | 0.00 | ||
| 20260505180148 | 74 | 175 | 9.6 | 13.0 | 0.00 | 0.00 | 0.00 | ||
| 20260505175746 | 74 | 175 | 9.6 | 13.9 | 0.00 | 0.00 | 0.00 | ||
| 20260505175345 | 74 | 175 | 8.7 | 12.2 | 0.00 | 0.00 | 0.00 | ||
| 20260505174944 | 74 | 166 | 8.7 | 13.9 | 0.00 | 0.00 | 0.00 | ||
| 20260505174541 | 74 | 168 | 8.7 | 11.3 | 0.00 | 0.00 | 0.00 | ||
| 20260505174140 | 74 | 165 | 8.7 | 12.2 | 0.00 | 0.00 | 0.00 | ||
| 20260505173738 | 75 | 158 | 11.3 | 18.2 | 0.00 | 0.00 | 0.00 | ||
| 20260505173337 | 75 | 169 | 9.6 | 14.8 | 0.00 | 0.00 | 0.00 | ||
| 20260505172935 | 75 | 192 | 7.8 | 13.9 | 0.00 | 0.00 | 0.00 | ||
| 20260505172533 | 75 | 186 | 9.6 | 15.6 | 0.00 | 0.00 | 0.00 | ||
| 20260505172126 | 76 | 200 | 5.2 | 7.0 | 0.00 | 0.00 | 0.00 | ||
| 20260505171723 | 76 | 185 | 6.1 | 9.6 | 0.00 | 0.00 | 0.00 | ||
| 20260505171322 | 76 | 200 | 8.7 | 12.2 | 0.00 | 0.00 | 0.00 | ||
| 20260505170920 | 76 | 187 | 9.6 | 13.0 | 0.00 | 0.00 | 0.00 | ||
| 20260505170518 | 76 | 183 | 7.8 | 10.4 | 0.00 | 0.00 | 0.00 | ||
| 20260505165716 | 76 | 202 | 10.4 | 17.4 | 0.00 | 0.00 | 0.00 | ||
| 20260505165313 | 77 | 182 | 9.6 | 12.2 | 0.00 | 0.00 | 0.00 | ||
| 20260505164511 | 77 | 182 | 11.3 | 16.5 | 0.00 | 0.00 | 0.00 | ||
| 20260505164103 | 77 | 188 | 10.4 | 17.4 | 0.00 | 0.00 | 0.00 | ||
| 20260505163700 | 77 | 178 | 14.8 | 20.0 | 0.00 | 0.00 | 0.00 | ||
| 20260505163259 | 78 | 170 | 15.6 | 24.3 | 0.00 | 0.00 | 0.00 | ||
| 20260505162858 | 80 | 161 | 11.3 | 19.1 | 0.00 | 0.00 | 0.00 | ||
| 20260505162456 | 80 | 176 | 8.7 | 12.2 | 0.00 | 0.00 | 0.00 | ||
| 20260505162054 | 80 | 185 | 12.2 | 16.5 | 0.00 | 0.00 | 0.00 | ||
| 20260505161652 | 81 | 169 | 10.4 | 16.5 | 0.00 | 0.00 | 0.00 | ||
| 20260505161251 | 81 | 186 | 12.2 | 15.6 | 0.00 | 0.00 | 0.00 | ||
| 20260505160850 | 82 | 169 | 12.2 | 14.8 | 0.00 | 0.00 | 0.00 | ||
| 20260505160448 | 81 | 180 | 9.6 | 13.0 | 0.00 | 0.00 | 0.00 | ||
| 20260505153228 | 80 | 172 | 12.2 | 16.5 | 0.00 | 0.00 | 0.00 | ||
| 20260505152826 | 80 | 171 | 13.9 | 19.1 | 0.00 | 0.00 | 0.00 | ||
| 20260505152424 | 80 | 163 | 11.3 | 20.0 | 0.00 | 0.00 | 0.00 | ||
| 20260505152016 | 79 | 165 | 17.4 | 26.9 | 0.00 | 0.00 | 0.00 | ||
| 20260505151615 | 80 | 145 | 14.8 | 25.2 | 0.00 | 0.00 | 0.00 | ||
| 20260505151212 | 80 | 163 | 13.0 | 20.0 | 0.00 | 0.00 | 0.00 | ||
| 20260505150811 | 80 | 171 | 15.6 | 21.7 | 0.00 | 0.00 | 0.00 | ||
| 20260505150409 | 81 | 160 | 13.0 | 18.2 | 0.00 | 0.00 | 0.00 | ||
| 20260505140337 | 79 | 162 | 9.6 | 18.2 | 0.00 | 0.00 | 0.00 | ||
| 20260505130259 | 81 | 151 | 17.4 | 24.3 | 0.00 | 0.00 | 0.00 | ||
| 20260505124653 | 82 | 175 | 15.6 | 23.5 | 0.00 | 0.00 | 0.00 | ||
| 20260505124251 | 82 | 177 | 13.0 | 19.1 | 0.00 | 0.00 | 0.00 | ||
| 20260505123843 | 82 | 154 | 13.0 | 20.0 | 0.00 | 0.00 | 0.00 | ||
| 20260505123440 | 82 | 175 | 15.6 | 20.0 | 0.00 | 0.00 | 0.00 | ||
| 20260505123039 | 82 | 160 | 17.4 | 26.1 | 0.00 | 0.00 | 0.00 | ||
| 20260505122638 | 83 | 161 | 13.0 | 20.0 | 0.00 | 0.00 | 0.00 | ||
| 20260505122236 | 82 | 178 | 13.9 | 20.9 | 0.00 | 0.00 | 0.00 | ||
| 20260505121834 | 82 | 165 | 17.4 | 26.1 | 0.00 | 0.00 | 0.00 | ||
| 20260505121432 | 81 | 169 | 20.9 | 28.7 | 0.00 | 0.00 | 0.00 | ||
| 20260505121031 | 82 | 185 | 13.0 | 19.1 | 0.00 | 0.00 | 0.00 | ||
| 20260505120630 | 81 | 141 | 9.6 | 13.0 | 0.00 | 0.00 | 0.00 | ||
| 20260505120227 | 82 | 154 | 10.4 | 14.8 | 0.00 | 0.00 | 0.00 | ||
| 20260505115819 | 80 | 175 | 7.8 | 12.2 | 0.00 | 0.00 | 0.00 | ||
| 20260505115417 | 79 | 180 | 10.4 | 13.9 | 0.00 | 0.00 | 0.00 | ||
| 20260505115016 | 80 | 180 | 13.9 | 18.2 | 0.00 | 0.00 | 0.00 | ||
| 20260505114614 | 80 | 141 | 13.0 | 22.6 | 0.00 | 0.00 | 0.00 | ||
| 20260505114212 | 80 | 147 | 12.2 | 20.9 | 0.00 | 0.00 | 0.00 | ||
| 20260505113811 | 79 | 140 | 9.6 | 14.8 | 0.00 | 0.00 | 0.00 | ||
| 20260505113409 | 78 | 162 | 12.2 | 19.1 | 0.00 | 0.00 | 0.00 | ||
| 20260505113008 | 78 | 167 | 11.3 | 15.6 | 0.00 | 0.00 | 0.00 | ||
| 20260505112606 | 78 | 154 | 9.6 | 16.5 | 0.00 | 0.00 | 0.00 | ||
| 20260505112204 | 78 | 165 | 11.3 | 15.6 | 0.00 | 0.00 | 0.00 | ||
| 20260505111756 | 77 | 181 | 14.8 | 20.9 | 0.00 | 0.00 | 0.00 | ||
| 20260505111355 | 79 | 174 | 13.0 | 21.7 | 0.00 | 0.00 | 0.00 | ||
| 20260505110953 | 79 | 176 | 13.9 | 21.7 | 0.00 | 0.00 | 0.00 | ||
| 20260505110552 | 78 | 172 | 13.9 | 19.1 | 0.00 | 0.00 | 0.00 | ||
| 20260505110150 | 78 | 184 | 9.6 | 15.6 | 0.00 | 0.00 | 0.00 | ||
| 20260505101725 | 78 | 152 | 9.6 | 13.9 | 0.00 | 0.00 | 0.00 | ||
| 20260505101323 | 77 | 165 | 12.2 | 20.0 | 0.00 | 0.00 | 0.00 | ||
| 20260505100922 | 77 | 151 | 14.8 | 24.3 | 0.00 | 0.00 | 0.00 | ||
| 20260505100521 | 77 | 178 | 15.6 | 20.9 | 0.00 | 0.00 | 0.00 | ||
| 20260505100118 | 78 | 163 | 14.8 | 20.0 | 0.00 | 0.00 | 0.00 | ||
| 20260505095710 | 79 | 157 | 14.8 | 22.6 | 0.00 | 0.00 | 0.00 | ||
| 20260505095309 | 79 | 154 | 13.9 | 20.9 | 0.00 | 0.00 | 0.00 | ||
| 20260505094908 | 78 | 165 | 15.6 | 26.9 | 0.00 | 0.00 | 0.00 | ||
| 20260505094505 | 78 | 166 | 20.0 | 26.1 | 0.00 | 0.00 | 0.00 | ||
| 20260505094104 | 78 | 177 | 19.1 | 25.2 | 0.00 | 0.00 | 0.00 | ||
| 20260505093739 | 78 | 182 | 14.8 | 25.2 | 0.00 | 0.00 | 0.00 | ||
| 20260505093703 | 78 | 182 | 14.8 | 25.2 | 0.00 | 0.00 | 0.00 | ||
| 20260505093301 | 79 | 166 | 18.2 | 27.8 | 0.00 | 0.00 | 0.00 |